www.pogodaiklimat.ru

Погода и климат >> Архив погоды >> Франция >> Париж


ПОГОДА в Париже

  • Прогноз погоды в Париже
  • Монитор погоды в Париже

АРХИВ ПОГОДЫ в Париже

Время (UTC), дата Ветер
(напр.,м/с)
 
Видим.   Явления Облачность Т
(С)
Тd
(С)
f
(%)
Тe
(С)
Тes
(С)
Комфортность P
(гПа)
Po
(гПа)
Тmin
(С)
Tmax
(С)
R
(мм)
R24
(мм)
S
(см)
07 19.06 ЮЗ 1 20 км н/о +23.4 +14.1 56 +27 +27 душно 1007.4 998.5
08 19.06 ЮЗ 2 20 км н/о +25.7 +15.1 52 +29 +29 душно 1007.5 998.6
09 19.06 З 3
{9}
20 км н/о +24.8 +14.9 54 +28 +28 жарко 1007.8 998.9 0
10 19.06 З 2 20 км н/о +24.7 +16.1 59 +28 +28 душно 1008.4 999.5
11 19.06 З 2 20 км н/о +25.5 +14.9 52 +28 +28 жарко 1008.7 999.8
12 19.06 ЮЗ 2
{13}
20 км н/о +25.8 +15.5 53 +29 +29 душно 1009.0 1000.1 0
13 19.06 ЮЗ 3 20 км н/о +25.9 +14.4 49 +28 +28 жарко 1009.0 1000.1
14 19.06 ЮЗ 3 20 км н/о +25.8 +15.8 54 +29 +29 душно 1008.9 1000.0
15 19.06 З 3
{13}
20 км н/о +25.3 +13.8 49 +28 +28 жарко 1008.8 999.9 0
16 19.06 ЮЗ 3 20 км н/о +25.0 +14.8 53 +28 +28 жарко 1008.7 999.8
17 19.06 ЮЗ 3 20 км н/о +24.3 +13.8 52 +27 +27 жарко 1008.9 1000.0
18 19.06 СЗ 2
{13}
20 км н/о +19.3 +15.8 80 +22 +22 комфорт 1010.3 1001.2 +19.3 +26.7 0.4 0
19 19.06 З 2 20 км н/о +19.0 +15.5 80 +21 +21 комфорт 1010.8 1001.7
20 19.06 З 1 20 км н/о +18.9 +15.8 82 +21 +21 комфорт 1011.3 1002.2
21 19.06 З 2
{6}
20 км н/о +18.4 +15.5 83 +20 +20 1011.7 1002.6 0
22 19.06 З 1 19 км слаб. дождь н/о +18.3 +15.4 83 +20 +20 1011.9 1002.8 0.2
23 19.06 З 1 20 км н/о +17.6 +15.4 87 +19 +19 1012.1 1002.9 0.4
00 20.06 З 1
{4}
20 км н/о +17.6 +15.2 86 +19 +19 1012.1 1002.9 0.6 0
01 20.06 З 1 19 км н/о +17.7 +15.3 86 +19 +19 1012.0 1002.8
02 20.06 ЮЗ 1 20 км н/о +17.4 +14.9 85 +19 +19 1012.0 1002.8
03 20.06 З 1
{4}
10 км дождь н/о +17.3 +15.1 87 +18 +18 1012.0 1002.8 0.2 0
04 20.06 З 1 19 км н/о +16.8 +15.3 91 +18 +18 1012.2 1003.0 0.6
05 20.06 З 2 3700 м дождь н/о +15.1 +13.8 92 +15 +15 1013.0 1003.7 2
06 20.06 СЗ 2
{9}
4700 м дождь н/о +14.6 +13.5 93 +14 +14 1013.6 1004.3 +14.6 +19.3 4 0
07 20.06 СЗ 1 16 км н/о +14.8 +13.3 91 +15 +15 1014.1 1004.8 1
08 20.06 СЗ 2 15 км н/о +15.5 +13.2 86 +16 +16 1014.6 1005.3
09 20.06 СЗ 2
{9}
20 км н/о +16.2 +12.4 78 +17 +17 1014.9 1005.7 1 0
10 20.06 З 2 20 км н/о +17.2 +12.1 72 +18 +18 1015.2 1006.0
11 20.06 З 2 20 км н/о +19.1 +11.6 62 +21 +21 комфорт 1015.7 1006.5
12 20.06 З 2
{8}
20 км н/о +19.5 +10.2 55 +21 +21 комфорт 1015.6 1006.5 0
13 20.06 З 2 20 км н/о +19.4 +10.7 57 +21 +21 комфорт 1015.7 1006.5
14 20.06 З 2 20 км н/о +19.8 +10.2 54 +22 +22 комфорт 1015.7 1006.6
15 20.06 СЗ 2
{8}
20 км н/о +19.6 +10.6 56 +22 +22 комфорт 1015.8 1006.7 0
16 20.06 СЗ 2 20 км н/о +19.9 +9.2 50 +22 +22 комфорт 1015.8 1006.7
17 20.06 С 1 20 км н/о +20.0 +10.4 54 +22 +22 комфорт 1015.9 1006.8
18 20.06 СЗ 1
{7}
20 км н/о +21.0 +7.9 43 +23 +23 комфорт 1016.1 1007.0 +14.6 +21.5 0
19 20.06 С 2 20 км н/о +20.0 +7.4 44 +22 +22 комфорт 1016.3 1007.2
20 20.06 С 2 20 км н/о +18.1 +8.1 52 +19 +19 1017.2 1008.0
21 20.06 СЗ 2
{8}
20 км н/о +17.7 +8.8 56 +18 +18 1017.5 1008.3 0
22 20.06 С 2 20 км н/о +16.8 +8.5 58 +17 +17 1018.1 1008.8
23 20.06 С 1 20 км н/о +16.6 +9.3 62 +17 +17 1018.7 1009.4
00 21.06 С 2
{5}
20 км н/о +15.7 +9.4 66 +16 +16 1019.0 1009.7 0
01 21.06 С 2 20 км н/о +15.5 +9.2 66 +16 +16 1019.0 1009.7
02 21.06 С 1 20 км н/о +14.6 +8.8 68 +15 +15 1019.1 1009.8
03 21.06 С 1
{4}
20 км н/о +13.8 +9.2 74 +14 +14 1019.4 1010.0 0
04 21.06 С 1 20 км н/о +13.7 +8.9 73 +14 +14 1019.6 1010.2
05 21.06 С 1 20 км н/о +14.6 +9.2 70 +15 +15 1019.9 1010.6
06 21.06 С 1
{5}
20 км н/о +15.3 +9.9 70 +16 +16 1020.1 1010.8 +13.5 +21.3 0
07 21.06 С 1 20 км н/о +16.2 +9.8 66 +17 +17 1020.5 1011.2
08 21.06 С 1 20 км н/о +18.1 +10.2 60 +19 +19 1020.7 1011.5
09 21.06 С 1
{6}
20 км н/о +18.3 +8.5 53 +20 +20 1020.7 1011.5 0
10 21.06 З 1 20 км н/о +19.4 +8.1 48 +21 +21 комфорт 1020.7 1011.5
11 21.06 СЗ 1 20 км н/о +18.7 +6.8 46 +20 +20 1020.5 1011.3
12 21.06 СЗ 1
{7}
20 км н/о +20.4 +7.7 44 +23 +23 комфорт 1020.4 1011.2 0
13 21.06 С 2 20 км н/о +21.7 +8.6 43 +23 +23 комфорт 1020.2 1011.1
14 21.06 С 1 20 км н/о +21.6 +8.1 42 +23 +23 комфорт 1019.9 1010.8
15 21.06 СВ 2
{8}
20 км н/о +21.3 +8.2 43 +22 +22 комфорт 1019.8 1010.7 0
16 21.06 СВ 2 20 км н/о +21.9 +8.7 43 +23 +23 комфорт 1019.7 1010.6
17 21.06 В 2 20 км н/о +22.0 +8.5 42 +23 +23 комфорт 1019.7 1010.6
18 21.06 СВ 2
{8}
20 км н/о +20.9 +8.2 44 +23 +23 комфорт 1019.8 1010.7 +15.4 +22.8 0
19 21.06 СВ 2 20 км н/о +20.0 +8.3 47 +22 +22 комфорт 1020.2 1011.0
20 21.06 СВ 2 20 км н/о +18.9 +8.5 51 +20 +20 1020.9 1011.7
21 21.06 СВ 2
{11}
20 км н/о +17.9 +8.5 54 +18 +18 1021.4 1012.1 0
22 21.06 С 2 20 км н/о +17.0 +8.2 56 +17 +17 1021.6 1012.3
23 21.06 СВ 3 20 км н/о +16.6 +8.3 58 +16 +16 1021.7 1012.4
00 22.06 СВ 2
{9}
20 км н/о +16.2 +8.4 60 +17 +17 1021.7 1012.4 0
01 22.06 С 2 20 км н/о +15.5 +9.4 67 +15 +15 1021.5 1012.2
02 22.06 СВ 2 20 км н/о +14.8 +9.4 70 +15 +15 1021.3 1011.9
03 22.06 СВ 2
{5}
20 км н/о +14.4 +9.4 72 +14 +14 1021.1 1011.7 0
04 22.06 С 1 20 км н/о +13.6 +9.0 74 +14 +14 1020.9 1011.5
05 22.06 С 2 20 км н/о +13.7 +9.1 74 +14 +14 1021.0 1011.6
06 22.06 С 2
{5}
20 км н/о +14.6 +9.4 71 +15 +15 1020.8 1011.4 +13.5 +20.9 0
07 22.06 С 2 20 км н/о +16.4 +9.6 64 +17 +17 1020.6 1011.3
08 22.06 С 2 20 км н/о +18.3 +9.6 57 +19 +19 1020.2 1011.0
09 22.06 СВ 2
{8}
20 км н/о +21.4 +11.1 52 +23 +23 комфорт 1019.8 1010.7 0
10 22.06 СВ 2 20 км н/о +21.5 +10.3 49 +23 +23 комфорт 1019.7 1010.6
11 22.06 СВ 1 20 км н/о +22.7 +10.8 47 +25 +25 комфорт 1019.4 1010.3
12 22.06 В 2
{8}
19 км н/о +23.7 +10.4 43 +25 +25 комфорт 1019.1 1010.0 0
13 22.06 В 1 20 км н/о +24.5 +10.4 41 +26 +26 жарко 1018.5 1009.5
14 22.06 СВ 2 20 км н/о +24.6 +10.8 42 +26 +26 жарко 1018.0 1009.0
15 22.06 В 2
{8}
20 км н/о +24.6 +11.5 44 +26 +26 жарко 1017.5 1008.5 0
16 22.06 В 2 20 км н/о +24.1 +11.8 46 +26 +26 жарко 1017.0 1008.0
17 22.06 В 2 20 км н/о +23.6 +12.6 50 +26 +26 жарко 1017.1 1008.1
18 22.06 В 1
{6}
20 км н/о +23.3 +12.9 52 +26 +26 жарко 1017.0 1008.0 +14.7 +25.5 0
19 22.06 В 2 20 км н/о +22.7 +12.0 51 +25 +25 комфорт 1017.1 1008.0
20 22.06 В 1 20 км н/о +22.5 +12.1 52 +25 +25 комфорт 1017.2 1008.1
21 22.06 СВ 1
{8}
20 км н/о +21.3 +12.4 57 +24 +24 комфорт 1017.7 1008.6 0
22 22.06 СВ 2 20 км н/о +20.6 +12.6 60 +24 +24 комфорт 1017.4 1008.3
23 22.06 СВ 1 20 км н/о +20.1 +12.3 61 +23 +23 комфорт 1017.3 1008.2
00 23.06 В 1
{7}
20 км н/о +19.6 +12.6 64 +22 +22 комфорт 1017.0 1007.8 0
01 23.06 СВ 1 20 км н/о +18.9 +12.6 67 +21 +21 комфорт 1016.8 1007.6
02 23.06 С 1 20 км н/о +18.3 +12.5 69 +20 +20 1016.7 1007.5
03 23.06 СВ 1
{4}
20 км н/о +17.5 +12.8 74 +19 +19 1016.5 1007.3 0
04 23.06 В 2 20 км н/о +17.4 +12.9 75 +18 +18 1016.1 1006.9
05 23.06 В 1 20 км н/о +17.4 +13.3 77 +18 +18 1016.1 1006.9
06 23.06 В 2
{6}
20 км н/о +19.1 +13.5 70 +21 +21 комфорт 1016.0 1006.8 +17.2 +23.3 0
07 23.06 В 1 20 км н/о +22.0 +13.9 60 +25 +25 комфорт 1015.6 1006.5
08 23.06 ЮВ 2 19 км н/о +24.3 +15.2 57 +27 +27 жарко 1015.6 1006.6
09 23.06 ЮВ 2
{9}
20 км н/о +26.1 +16.1 54 +29 +29 жарко 1015.2 1006.3 0
10 23.06 ЮВ 2 19 км н/о +26.7 +15.7 51 +30 +30 душно 1015.0 1006.1
11 23.06 ЮВ 2 20 км н/о +27.4 +15.4 48 +30 +30 жарко 1014.6 1005.7
12 23.06 ЮВ 2
{10}
20 км н/о +27.7 +16.0 49 +31 +31 душно 1014.5 1005.6 0
13 23.06 ЮВ 2 20 км н/о +26.8 +16.1 52 +30 +30 душно 1014.1 1005.2
14 23.06 ЮВ 2 20 км н/о +28.1 +17.0 51 +32 +32 душно 1014.1 1005.2
15 23.06 ЮВ 2
{10}
20 км н/о +27.9 +16.8 51 +32 +32 душно 1013.9 1005.0 0
16 23.06 ЮВ 2 20 км н/о +28.7 +16.9 49 +32 +32 душно 1013.5 1004.7
17 23.06 Ю 2 20 км н/о +29.3 +16.8 47 +33 +33 душно 1013.1 1004.3
18 23.06 ЮВ 2
{9}
20 км н/о +27.7 +16.6 51 +31 +31 душно 1013.5 1004.6 +19.2 +29.9 0
19 23.06 ЮВ 2 20 км н/о +26.7 +16.9 55 +30 +30 душно 1013.6 1004.7
20 23.06 ЮВ 2 20 км н/о +25.9 +17.3 59 +30 +30 душно 1014.0 1005.1
21 23.06 ЮВ 1
{7}
20 км н/о +25.2 +17.9 64 +30 +30 душно 1014.4 1005.5 0
22 23.06 ЮВ 1 20 км н/о +24.6 +18.1 67 +29 +29 душно 1014.7 1005.7
23 23.06 Ю 1 20 км н/о +22.9 +17.8 73 +28 +28 душно 1014.9 1005.9
00 24.06 ЮВ 1
{4}
20 км н/о +22.2 +17.8 76 +27 +27 душно 1014.9 1005.9 0
01 24.06 ЮВ 1 20 км н/о +21.4 +17.6 79 +26 +26 душно 1014.9 1005.8
02 24.06 Ю 1 20 км н/о +20.8 +17.0 79 +26 +26 душно 1014.4 1005.3
03 24.06 Ю 2
{5}
20 км н/о +20.6 +16.6 78 +25 +25 комфорт 1014.8 1005.7 0
04 24.06 Ю 1 20 км н/о +21.0 +16.4 75 +26 +26 душно 1014.9 1005.8
05 24.06 ЮВ 1 20 км н/о +20.9 +16.9 78 +26 +26 душно 1015.3 1006.2
06 24.06 ЮВ 1
{5}
19 км н/о +22.8 +17.3 71 +28 +28 душно 1015.4 1006.4 +20.4 +27.7 0
07 24.06 ЮВ 1 20 км н/о +25.0 +18.0 65 +29 +29 душно 1015.4 1006.4
08 24.06 ЮВ 1 20 км н/о +26.7 +18.3 60 +31 +31 душно 1015.6 1006.7
09 24.06 Ю 1
{5}
20 км н/о +28.9 +17.7 51 +33 +33 очень
душно
1015.5 1006.7 0
10 24.06 З 2 20 км н/о +29.3 +17.2 48 +33 +33 душно 1016.1 1007.3
11 24.06 СЗ 2 20 км н/о +28.3 +18.1 54 +33 +33 очень
душно
1016.1 1007.2
12 24.06 С 2
{8}
20 км н/о +28.8 +18.3 53 +34 +34 очень
душно
1015.9 1007.1 0
13 24.06 С 2 20 км н/о +28.3 +18.7 56 +33 +33 очень
душно
1016.1 1007.2
14 24.06 С 2 20 км н/о +29.3 +19.6 56 +35 +35 очень
душно
1015.2 1006.4
15 24.06 СВ 3
{10}
20 км н/о +31.1 +20.1 52 +38 +38 очень
душно
1014.8 1006.0 0
16 24.06 СВ 2 20 км н/о +30.7 +20.6 55 +38 +38 очень
душно
1014.8 1006.0
17 24.06 СВ 2 20 км н/о +31.1 +18.5 47 +36 +36 очень
душно
1014.5 1005.7
18 24.06 В 2
{9}
20 км н/о +30.5 +19.8 53 +37 +37 очень
душно
1014.4 1005.6 +22.7 +31.4 0
19 24.06 В 2 20 км н/о +29.0 +17.2 49 +33 +33 очень
душно
1014.4 1005.6
20 24.06 СВ 2 20 км н/о +27.7 +18.4 57 +33 +33 очень
душно
1014.7 1005.8
21 24.06 СВ 2
{8}
20 км н/о +27.1 +17.8 57 +32 +32 очень
душно
1014.3 1005.4 0
22 24.06 СВ 2 20 км н/о +26.3 +18.7 63 +31 +31 душно 1013.5 1004.6
23 24.06 В 2 20 км н/о +25.6 +18.8 66 +31 +31 очень
душно
1013.9 1005.0
00 25.06 В 1
{6}
20 км н/о +24.7 +18.6 69 +29 +29 душно 1013.3 1004.4 0
01 25.06 В 1 20 км н/о +23.4 +18.3 73 +29 +29 душно 1013.5 1004.5
02 25.06 З 1 20 км н/о +23.4 +18.3 73 +29 +29 душно 1013.5 1004.5
03 25.06 ЮВ 1
{2}
20 км н/о +22.6 +18.2 76 +28 +28 душно 1013.4 1004.4 0
04 25.06 Ю 1 20 км н/о +22.0 +18.2 79 +27 +27 душно 1013.7 1004.7
05 25.06 Ю 1 20 км н/о +21.9 +18.1 79 +27 +27 душно 1014.2 1005.2
06 25.06 ЮЗ 1
{4}
20 км н/о +23.0 +18.5 76 +29 +29 очень
душно
1014.5 1005.5 +21.7 +30.6 0
07 25.06 З 1 19 км н/о +24.6 +19.2 72 +30 +30 очень
душно
1015.1 1006.1
08 25.06 ЮЗ 2 20 км н/о +26.3 +18.9 64 +31 +31 душно 1015.4 1006.5
09 25.06 ЮЗ 1
{7}
20 км н/о +27.2 +20.3 66 +34 +34 очень
душно
1015.7 1006.8 0
10 25.06 Ю 1 19 км н/о +28.9 +20.6 61 +36 +36 очень
душно
1016.0 1007.2
11 25.06 ЮЗ 2 20 км н/о +30.0 +20.0 55 +36 +36 очень
душно
1016.2 1007.4
12 25.06 ЮЗ 2
{9}
20 км н/о +31.2 +20.5 53 +38 +38 очень
душно
1016.5 1007.7 0
13 25.06 З 2 20 км н/о +31.5 +18.8 47 +37 +37 очень
душно
1016.7 1007.9
14 25.06 З 2 20 км н/о +32.2 +19.5 47 +38 +38 очень
душно
1016.7 1008.0
15 25.06 З 2
{7}
20 км н/о +32.5 +17.2 40 +36 +36 очень
душно
1017.1 1008.3 0
16 25.06 ЮЗ 1 20 км н/о +32.8 +17.8 41 +37 +37 очень
душно
1017.0 1008.3
17 25.06 ЮЗ 2 20 км н/о +32.2 +17.7 42 +36 +36 очень
душно
1017.4 1008.6
18 25.06 З 1
{5}
20 км н/о +32.0 +17.1 41 +36 +36 очень
душно
1017.9 1009.1 +23.0 +33.2 0
19 25.06 З 1 20 км н/о +31.3 +17.9 45 +36 +36 очень
душно
1018.1 1009.3
20 25.06 С 1 19 км н/о +28.8 +18.9 55 +34 +34 очень
душно
1018.9 1010.0
21 25.06 СВ 3
{10}
20 км н/о +27.2 +20.5 67 +34 +34 очень
душно
1020.0 1011.1 0
22 25.06 С 2 20 км н/о +25.3 +19.7 71 +31 +31 очень
душно
1020.6 1011.6
23 25.06 СВ 2 20 км н/о +23.8 +17.8 69 +28 +28 душно 1020.7 1011.7
00 26.06 СВ 2
{8}
20 км н/о +23.0 +17.9 73 +28 +28 душно 1021.0 1011.9 0
01 26.06 СВ 2 20 км н/о +22.4 +18.2 77 +28 +28 душно 1021.0 1011.9
02 26.06 СВ 2 19 км н/о +22.0 +18.4 80 +27 +27 душно 1021.0 1011.9
03 26.06 СВ 2
{6}
15 км н/о +21.6 +18.4 82 +26 +26 душно 1021.0 1011.9 0
05 26.06 СВ 2 10 км н/о +21.4 +18.6 84 +26 +26 душно 1021.4 1012.3
06 26.06 С 2
{7}
9000 м н/о +21.8 +18.4 81 +27 +27 душно 1022.0 1012.9 +21.0 +32.0 0
07 26.06 СВ 2 11 км н/о +24.0 +19.1 74 +29 +29 душно 1021.8 1012.8
08 26.06 СВ 2 15 км н/о +26.3 +19.9 68 +32 +32 очень
душно
1022.0 1013.0

 

Местоположение метеостанции Париж (Франция): широта 48.82 долгота 2.33 высота над уровнем моря 77 м.

В архиве по умолчанию представлена погода в Париже за последнюю неделю. Архивные данные за месяц целиком и за предыдущие месяцы, начиная с января 2011 года, Вы можете получить, выбрав интересующий диапазон дат из раскрывающегося списка и нажав кнопку "Ввод!".


*Определитесь, кто Вы:
робот инопланетянин человек

Внимание! Время в таблицах - всемирное. Для получения местного времени необходимо прибавить поправку, которая равна 1 ч.

Смотрите также архив погоды в соседних городах и на ближайших метеорологических станциях:

Погода в Велизи-Вилакубле (Франция) (11 км)
Погода в Париж Орли аэропорту (Франция) (12 км)
Погода в Ле-Бурже (Франция) (18 км)
Погода в Трапе (Франция) (25 км)
Погода в Аэропорту Шарль де Голль (Франция) (27 км)
Погода в Мелене (Франция) (34 км)
Погода в Кормее (Франция) (36 км)
Погода в Крее (Франция) (50 км)
Погода в Шартре (Франция) (72 км)
Погода в Бове (Франция) (74 км)

Пояснения к столбцам:

Ветер - указаны скорость ветра в м/с - средняя за 10 мин, порывы в срок и между сроками (в фигурных скобках) и направление, откуда дует ветер: С - северный, СВ - северо-восточный, В - восточный, ЮВ - юго-восточный, Ю - южный, ЮЗ - юго-западный, З - западный, СЗ - северо-западный.
Видимость - горизонтальная дальность видимости в метрах или километрах. При видимости от 1 до 10 км при отсутствии осадков обычно наблюдается дымка, при ухудшении видимости до 1 км и менее - туман. В сухую погоду видимость может ухудшаться дымом, пылью или мглою.
Явления - указаны атмосферные явления, наблюдавшиеся в срок или в последний час перед сроком; фигурными скобками обозначены явления, наблюдавшиеся между сроками (за 1-3 часа до срока); квадратными скобками обозначены град или гололедные отложения с указанием их диаметра в мм.
Облачность - указаны через наклонную черту общая и нижняя облачность в баллах и высота нижней границы облаков в метрах; квадратными скобками обозначены формы облаков: Ci - перистые, Cs - перисто-слоистые, Cc - перисто-кучевые, Ac - высококучевые, As - высокослоистые, Sc - слоисто-кучевые, Ns - слоисто-дождевые, Cu - кучевые, Cb - кучево-дождевые. Подробнее классификацию облаков см. в Атласе облаков (PDF).
T - Температура воздуха - температура, измеренная на высоте 2 м над землей.
Td - Температура точки росы - температура, при понижении до которой содержащийся в воздухе водяной пар достигнет насыщения.
f - Относительная влажность воздуха - влажноcть воздуха, измеренная на высоте 2 м над землей.
Te - Эффективная температура - температура, которую ощущает одетый по сезону человек в тени. Характеристика душности погоды. При расчете учитывается влияние влажности воздуха и скорости ветра на теплоощущения человека.
Tes - Эффективная температура на солнце - температура, которую ощущает человек, с поправкой на солнечный нагрев. Характеристика знойности погоды. Зависит от высоты солнца над горизонтом, облачности и скорости ветра. Ночью, в пасмурную погоду, а также при ветре 12 м/с и более поправка равна нулю.
P - Атмосферное давление - приведенное к уровню моря атмосферное давление.
Po - Атмосферное давление - измеренное на уровне метеостанции атмосферное давление.
Tmin - Минимальная температура - минимум температуры воздуха на высоте 2 м над землей.
Tmax - Максимальная температура - максимум температуры воздуха на высоте 2 м над землей.
R - Количество осадков - Количество выпавших осадков за период времени, мм. При наведении курсора мыши на число - период времени, за который выпало указанное количество осадков.
R24 - Количество осадков - Количество выпавших осадков за 24 часа, мм.
S - Снежный покров - Высота снежного покрова, см. При наведении курсора мыши на число - состояние снежного покрова и степень покрытия местности в баллах.